Weather History for Greenwood, MS

Change the Weather History Date:

Sunday, June 8, 2014

  Actual Average Record
Temperature  
Mean Temperature 79 °F 78 °F  
Max Temperature 90 °F 88 °F 98 °F (1953)
Min Temperature 68 °F 67 °F 53 °F (1977)
Degree Days  
Heating Degree Days 0 0  
Month to date heating degree days 0 0  
Since 1 June heating degree days 0 0  
Since 1 July heating degree days 3271 2688  
Cooling Degree Days 14 13  
Month to date cooling degree days 113 94  
Year to date cooling degree days 407 424  
Since 1 June cooling degree days 113 94  
Growing Degree Days 30 (Base 50)    
Moisture  
Dew Point 71 °F    
Average Humidity 75    
Maximum Humidity 93    
Minimum Humidity 56    
Precipitation  
Precipitation 1.06 in 0.15 in 2.20 in (1971)
Month to date precipitation 2.03 1.16  
Year to date precipitation 25.15 24.49  
Sea Level Pressure  
Sea Level Pressure 29.91 in    
Wind  
Wind Speed 6 mph (North)    
Max Wind Speed 18 mph    
Max Gust Speed 24 mph    
Visibility 9 miles    
Events Rain    
T = Trace of Precipitation, MM = Missing Value Source: NWS Daily Summary

Daily Weather History Graph

Daily Weather History Graph

Search for Another Location

Airport:

Trip Planner

Search our weather history database for the weather conditions in past years. The results will help you decide how hot, cold, wet, or windy it might be!

Date:

Astronomy

Jun. 08, 2014 Rise Set
Actual Time 5:50 AM CDT 8:08 PM CDT
Civil Twilight 5:21 AM CDT 8:37 PM CDT
Nautical Twilight 4:46 AM CDT 9:13 PM CDT
Astronomical Twilight 4:07 AM CDT 9:51 PM CDT
Moon 3:39 PM CDT (6/8) 2:29 AM CDT (6/8)
Length of Visible Light 15h 16m
Length of Day
14h 18m
Waxing Gibbous, 77% of the Moon is Illuminated
Jun 8
Waxing Gibbous
Jun 12
Full
Jun 19
Last Quarter
Jun 27
New
Jul 5
First Quarter

Hourly Weather History & Observations

Time (CDT) Temp. Heat Index Dew Point Humidity Pressure Visibility Wind Dir Wind Speed Gust Speed Precip Events Conditions
12:53 AM 75.9 °F - 70.0 °F 82% 29.93 in 10.0 mi NE 3.5 mph - N/A   Clear
1:53 AM 75.0 °F - 68.0 °F 79% 29.91 in 10.0 mi Calm Calm - N/A   Clear
2:53 AM 73.0 °F - 69.1 °F 87% 29.90 in 10.0 mi SSW 3.5 mph - N/A   Clear
3:53 AM 71.1 °F - 68.0 °F 90% 29.90 in 10.0 mi Calm Calm - N/A   Clear
4:53 AM 71.1 °F - 69.1 °F 93% 29.91 in 10.0 mi Calm Calm - N/A   Clear
5:53 AM 71.1 °F - 69.1 °F 93% 29.92 in 7.0 mi SSW 5.8 mph - N/A   Clear
6:53 AM 73.9 °F - 72.0 °F 93% 29.93 in 8.0 mi Calm Calm - N/A   Clear
7:53 AM 78.1 °F - 73.9 °F 87% 29.94 in 10.0 mi Variable 3.5 mph - N/A   Clear
8:53 AM 82.0 °F 88.6 °F 75.0 °F 79% 29.96 in 10.0 mi Variable 3.5 mph - N/A   Partly Cloudy
9:53 AM 84.0 °F 91.9 °F 75.0 °F 74% 29.96 in 10.0 mi Variable 5.8 mph - N/A   Mostly Cloudy
10:29 AM 84.0 °F 91.9 °F 75.0 °F 74% 29.97 in 10.0 mi Variable 4.6 mph - N/A   Mostly Cloudy
10:53 AM 82.9 °F 89.4 °F 73.9 °F 74% 29.96 in 10.0 mi WNW 6.9 mph - N/A   Mostly Cloudy
11:42 AM 82.0 °F 88.6 °F 75.0 °F 79% 29.97 in 7.0 mi Calm Calm - 0.00 in Rain Light Rain
11:53 AM 82.0 °F 88.6 °F 75.0 °F 79% 29.97 in 10.0 mi NNW 4.6 mph - 0.00 in   Overcast
12:53 PM 86.0 °F 93.0 °F 73.0 °F 65% 29.95 in 10.0 mi North 6.9 mph - N/A   Clear
1:53 PM 88.0 °F 94.7 °F 72.0 °F 59% 29.91 in 10.0 mi North 5.8 mph - N/A   Clear
2:53 PM 87.1 °F 94.5 °F 73.0 °F 63% 29.91 in 10.0 mi NW 4.6 mph - N/A   Mostly Cloudy
3:53 PM 89.1 °F 95.0 °F 71.1 °F 55% 29.89 in 10.0 mi NW 3.5 mph - N/A   Scattered Clouds
4:53 PM 89.1 °F 97.0 °F 73.0 °F 59% 29.87 in 10.0 mi North 5.8 mph - N/A   Mostly Cloudy
5:53 PM 86.0 °F 93.0 °F 73.0 °F 65% 29.86 in 10.0 mi South 9.2 mph - 0.00 in Rain Light Rain
6:53 PM 82.0 °F 87.4 °F 73.0 °F 74% 29.85 in 10.0 mi NE 8.1 mph - 0.00 in   Partly Cloudy
7:53 PM 78.1 °F - 66.9 °F 68% 29.85 in 10.0 mi East 11.5 mph - N/A   Mostly Cloudy
8:53 PM 75.9 °F - 66.9 °F 74% 29.87 in 10.0 mi SE 4.6 mph - N/A   Partly Cloudy
9:53 PM 75.9 °F - 69.1 °F 79% 29.86 in 10.0 mi ESE 8.1 mph - N/A   Clear
10:53 PM 75.9 °F - 69.1 °F 79% 29.85 in 10.0 mi ESE 10.4 mph - N/A   Clear
11:53 PM 75.0 °F - 66.9 °F 76% 29.92 in 6.0 mi NW 10.4 mph 23.0 mph 0.03 in Rain Light Rain
11:59 PM 69.1 °F - 64.9 °F 87% 29.93 in 1.8 mi West 12.7 mph 24.2 mph 0.13 in Rain Heavy Rain